TimeCST,TemperatureF,Dew PointF,Humidity,Sea Level PressureIn,VisibilityMPH,Wind Direction,Wind SpeedMPH,Gust SpeedMPH,PrecipitationIn,Events,Conditions,WindDirDegrees,DateUTC
12:15 AM,33.8,24.8,70,30.37,10.0,WNW,3.5,-,N/A,,Clear,290,2012-11-18 06:15:00
1:15 AM,35.6,26.6,70,30.37,10.0,Calm,Calm,-,N/A,,Clear,0,2012-11-18 07:15:00
1:35 AM,33.8,24.8,70,30.37,10.0,NE,4.6,-,N/A,,Clear,40,2012-11-18 07:35:00
2:15 AM,30.2,23.0,75,30.37,10.0,Calm,Calm,-,N/A,,Clear,0,2012-11-18 08:15:00
2:55 AM,32.0,24.8,75,30.36,10.0,Calm,Calm,-,N/A,,Clear,0,2012-11-18 08:55:00
3:15 AM,30.2,23.0,75,30.36,10.0,Calm,Calm,-,N/A,,Clear,0,2012-11-18 09:15:00
3:36 AM,30.2,24.8,80,30.36,10.0,Calm,Calm,-,N/A,,Clear,0,2012-11-18 09:36:00
3:55 AM,30.2,23.0,75,30.35,10.0,Calm,Calm,-,N/A,,Clear,0,2012-11-18 09:55:00
4:15 AM,30.2,23.0,75,30.35,10.0,Calm,Calm,-,N/A,,Clear,0,2012-11-18 10:15:00
4:55 AM,28.4,21.2,74,30.35,3.0,Calm,Calm,-,N/A,,Clear,0,2012-11-18 10:55:00
5:15 AM,30.2,23.0,75,30.35,7.0,Calm,Calm,-,N/A,,Clear,0,2012-11-18 11:15:00
5:35 AM,28.4,21.2,74,30.35,7.0,Calm,Calm,-,N/A,,Clear,0,2012-11-18 11:35:00
5:55 AM,28.4,21.2,74,30.35,10.0,Calm,Calm,-,N/A,,Clear,0,2012-11-18 11:55:00
6:15 AM,26.6,21.2,80,30.35,10.0,Calm,Calm,-,N/A,,Clear,0,2012-11-18 12:15:00
6:35 AM,28.4,21.2,74,30.35,10.0,Calm,Calm,-,N/A,,Clear,0,2012-11-18 12:35:00
6:55 AM,26.6,21.2,80,30.35,10.0,Calm,Calm,-,N/A,,Clear,0,2012-11-18 12:55:00
7:55 AM,30.2,24.8,80,30.36,10.0,Calm,Calm,-,N/A,,Clear,0,2012-11-18 13:55:00
8:15 AM,32.0,26.6,80,30.36,10.0,Calm,Calm,-,N/A,,Clear,0,2012-11-18 14:15:00
8:35 AM,33.8,26.6,75,30.36,10.0,Calm,Calm,-,N/A,,Clear,0,2012-11-18 14:35:00
8:55 AM,37.4,28.4,70,30.36,10.0,Calm,Calm,-,N/A,,Clear,0,2012-11-18 14:55:00
9:15 AM,39.2,30.2,70,30.36,10.0,Calm,Calm,-,N/A,,Clear,0,2012-11-18 15:15:00
9:36 AM,41.0,30.2,65,30.36,10.0,Calm,Calm,-,N/A,,Clear,0,2012-11-18 15:36:00
9:55 AM,42.8,30.2,61,30.37,10.0,East,3.5,-,N/A,,Clear,100,2012-11-18 15:55:00
10:15 AM,44.6,32.0,61,30.36,10.0,Calm,Calm,-,N/A,,Clear,0,2012-11-18 16:15:00
11:15 AM,53.6,33.8,47,30.35,10.0,ESE,3.5,-,N/A,,Clear,110,2012-11-18 17:15:00
11:35 AM,55.4,33.8,44,30.33,10.0,East,3.5,-,N/A,,Clear,100,2012-11-18 17:35:00
11:55 AM,57.2,33.8,41,30.32,10.0,South,4.6,-,N/A,,Clear,180,2012-11-18 17:55:00
12:15 PM,60.8,33.8,36,30.31,10.0,SSE,4.6,-,N/A,,Clear,150,2012-11-18 18:15:00
12:36 PM,60.8,33.8,36,30.30,10.0,South,5.8,-,N/A,,Clear,180,2012-11-18 18:36:00
1:15 PM,62.6,30.2,30,30.28,10.0,SSE,4.6,-,N/A,,Clear,160,2012-11-18 19:15:00
1:36 PM,64.4,30.2,28,30.27,10.0,SSE,3.5,-,N/A,,Clear,160,2012-11-18 19:36:00
1:55 PM,64.4,32.0,30,30.27,10.0,East,6.9,-,N/A,,Clear,90,2012-11-18 19:55:00
2:15 PM,64.4,32.0,30,30.26,10.0,East,4.6,-,N/A,,Clear,100,2012-11-18 20:15:00
3:15 PM,64.4,28.4,26,30.25,10.0,SSE,5.8,-,N/A,,Clear,150,2012-11-18 21:15:00
3:55 PM,64.4,26.6,24,30.25,10.0,South,8.1,-,N/A,,Clear,180,2012-11-18 21:55:00
4:55 PM,60.8,28.4,29,30.25,10.0,SE,4.6,-,N/A,,Clear,130,2012-11-18 22:55:00
5:15 PM,59.0,28.4,31,30.26,10.0,SE,3.5,-,N/A,,Clear,140,2012-11-18 23:15:00
5:35 PM,57.2,28.4,33,30.27,10.0,SSE,3.5,-,N/A,,Clear,150,2012-11-18 23:35:00
5:55 PM,57.2,28.4,33,30.27,10.0,SE,3.5,-,N/A,,Clear,140,2012-11-18 23:55:00
6:55 PM,53.6,28.4,38,30.27,10.0,Calm,Calm,-,N/A,,Clear,0,2012-11-19 00:55:00
7:15 PM,50.0,28.4,43,30.27,10.0,Calm,Calm,-,N/A,,Clear,0,2012-11-19 01:15:00
7:35 PM,51.8,28.4,41,30.27,10.0,Calm,Calm,-,N/A,,Clear,0,2012-11-19 01:35:00
7:56 PM,51.8,28.4,41,30.28,10.0,Calm,Calm,-,N/A,,Clear,0,2012-11-19 01:56:00
8:15 PM,51.8,28.4,41,30.28,10.0,Calm,Calm,-,N/A,,Clear,0,2012-11-19 02:15:00
9:15 PM,50.0,30.2,47,30.28,10.0,Calm,Calm,-,N/A,,Clear,0,2012-11-19 03:15:00
9:35 PM,50.0,30.2,47,30.29,10.0,East,3.5,-,N/A,,Clear,100,2012-11-19 03:35:00
9:55 PM,50.0,30.2,47,30.28,10.0,ESE,3.5,-,N/A,,Clear,120,2012-11-19 03:55:00
10:15 PM,46.4,30.2,53,30.28,10.0,Calm,Calm,-,N/A,,Clear,0,2012-11-19 04:15:00
10:55 PM,48.2,30.2,50,30.28,10.0,SSE,4.6,-,N/A,,Clear,150,2012-11-19 04:55:00
11:15 PM,50.0,32.0,50,30.27,10.0,SE,4.6,-,N/A,,Clear,140,2012-11-19 05:15:00
11:55 PM,51.8,32.0,47,30.26,10.0,SSE,4.6,-,N/A,,Clear,150,2012-11-19 05:55:00